Location: Arran
(51.9410°N, 101.7372°W)
Time: 22:32:30
(UTC+00:00)

BUGSAT 1 - Visible Passes

Search period start: 01 December 2023 00:00
Search period end: 11 December 2023 00:00
Orbit: 537 x 588 km, 98.2° (Epoch: 30 November)

Date Brightness Start Highest point End Pass type
(mag) Time Alt. Az. Time Alt. Az. Time Alt. Az.
01 Dec ? 00:52:56 13° N 00:52:56 13° N 00:53:30 10° N visible
02 Dec ? 00:52:36 13° N 00:52:36 13° N 00:53:02 10° N visible
03 Dec ? 00:52:15 12° N 00:52:15 12° N 00:52:34 10° N visible
03 Dec ? 13:53:17 10° NE 13:56:26 22° E 13:59:35 10° SSE visible
04 Dec ? 00:51:52 11° N 00:51:52 11° N 00:52:04 10° N visible
04 Dec ? 13:52:49 10° NE 13:55:56 22° E 13:59:05 10° SE visible
05 Dec ? 00:51:28 11° N 00:51:28 11° N 00:51:34 10° N visible
05 Dec ? 13:52:19 10° NE 13:55:26 22° E 13:58:33 10° SE visible
06 Dec ? 00:51:02 10° N 00:51:02 10° N 00:51:03 10° N visible
06 Dec ? 13:51:49 10° NE 13:54:55 21° E 13:58:01 10° SE visible
07 Dec ? 13:51:18 10° NE 13:54:22 21° E 13:57:28 10° SE visible
08 Dec ? 13:50:45 10° NE 13:53:49 21° E 13:56:53 10° SE visible
09 Dec ? 13:50:12 10° NE 13:53:15 21° E 13:56:18 10° SE visible
10 Dec ? 13:49:39 10° NE 13:52:39 20° E 13:55:41 10° SE visible
